Location: Newark
(13.6797°N, 8.5297°E)
Time: 19:37:14
(UTC+00:00)

Explorer 7 - All Passes

Search period start: 22 January 2020 00:00
Search period end: 01 February 2020 00:00
Orbit: 485 x 679 km, 50.3° (Epoch: 22 January)

Date Brightness Start Highest point End Pass type
(mag) Time Alt. Az. Time Alt. Az. Time Alt. Az.
22 Jan - 06:46:53 10° NNW 06:50:52 37° NE 06:55:05 10° ESE daylight
22 Jan - 08:28:27 10° W 08:31:15 16° SW 08:34:09 10° SSW daylight
22 Jan - 20:36:31 10° SW 20:40:29 79° SE 20:44:17 10° NE night (unlit)
23 Jan - 06:51:29 10° NW 06:55:45 76° NE 07:00:19 10° SE daylight
23 Jan - 20:41:34 10° SW 20:45:22 44° NW 20:49:01 10° NNE night (unlit)
24 Jan - 05:18:28 10° NNE 05:20:08 12° NE 05:21:50 10° ENE visible
24 Jan - 06:56:28 10° NW 07:00:38 51° SW 07:05:05 10° SSE daylight
24 Jan - 19:06:53 10° S 19:09:58 21° SE 19:12:57 10° ENE visible
24 Jan - 20:47:15 10° W 20:50:18 21° NW 20:53:15 10° N night (unlit)
25 Jan - 05:21:48 10° N 05:25:07 23° NE 05:28:37 10° ESE visible
25 Jan - 07:01:59 10° WNW 07:05:31 25° SW 07:09:15 10° S daylight
25 Jan - 19:10:56 10° SSW 19:14:51 44° SE 19:18:34 10° NE visible
25 Jan - 20:54:23 10° WNW 20:55:18 11° NW 20:56:12 10° NNW night (unlit)
26 Jan - 05:26:04 10° NNW 05:30:02 45° NE 05:34:16 10° SE visible
26 Jan - 07:08:32 10° W 07:10:25 12° SW 07:12:19 10° SSW daylight
26 Jan - 19:15:37 10° SW 19:19:44 79° NW 19:23:36 10° NE visible
27 Jan - 05:30:47 10° NW 05:34:55 85° SW 05:39:22 10° SE visible
27 Jan - 17:42:18 10° SSE 17:44:18 13° SE 17:46:16 10° E visible
27 Jan - 19:20:51 10° WSW 19:24:37 35° NW 19:28:12 10° NNE visible
28 Jan - 03:57:10 10° NNE 03:59:22 14° NE 04:01:37 10° E visible
28 Jan - 05:35:55 10° WNW 05:39:48 39° SW 05:43:56 10° SSE daylight
28 Jan - 17:45:35 10° S 17:49:12 27° SE 17:52:37 10° ENE visible
28 Jan - 19:26:46 10° W 19:29:33 18° NW 19:32:15 10° N visible
29 Jan - 04:00:53 10° N 04:04:20 27° NE 04:07:57 10° ESE visible
29 Jan - 05:41:39 10° W 05:44:41 19° SW 05:47:51 10° S daylight
29 Jan - 17:49:53 10° SSW 17:54:04 59° SE 17:57:59 10° NE visible
30 Jan - 04:05:17 10° NNW 04:09:13 56° NE 04:13:26 10° SE visible
30 Jan - 17:54:44 10° SW 17:58:56 62° NW 18:02:53 10° NNE visible
31 Jan - 04:10:07 10° NW 04:14:06 66° SW 04:18:21 10° SSE visible
31 Jan - 16:20:35 10° S 16:23:29 17° SE 16:26:17 10° E daylight
31 Jan - 18:00:09 10° WSW 18:03:50 29° NW 18:07:20 10° NNE visible
